Theta_e
290 288 285 286 288 289 290 290 291 290 289 287 285 285 285 284 285 286 287 291 290 289 286 287 285 284 287 289 290 292 290 291 290 288 288 288 288 287 287 287 287 287 287 289 288 288 288 289 289 289 289 290 290 290 290 291 291 291 292 293 292 294 295 296 297 299 300 300 303 304 303 304 306 306 308 308 308 309 309 309 310 311 312 312 311 311
292 287 286 290 291 291 291 290 289 288 288 288 286 284 285 283 285 287 288 289 288 289 284 284 286 288 289 290 290 291 290 288 288 288 287 287 287 287 286 286 286 287 288 288 287 287 287 287 288 288 289 289 288 288 289 289 289 290 291 291 291 292 293 294 295 296 297 297 296 297 298 302 301 302 303 303 304 306 307 307 307 308 309 309 309 308
287 287 290 292 292 290 289 288 288 287 287 286 285 284 283 285 284 288 288 288 288 288 287 284 286 289 291 288 290 289 287 288 288 288 287 287 286 286 286 286 286 286 286 286 286 286 286 286 287 287 287 287 288 288 288 288 289 289 289 290 291 291 291 292 294 295 295 296 297 297 296 297 297 298 300 300 300 302 303 302 302 302 304 306 306 306
285 286 291 293 291 290 289 287 286 287 286 285 284 283 285 284 285 284 285 286 289 288 286 286 285 287 288 288 288 288 288 287 288 287 287 287 286 285 285 285 285 285 285 285 285 285 285 285 286 286 286 286 287 287 287 287 288 289 289 289 289 290 290 291 292 294 294 295 295 296 296 297 296 294 295 296 296 296 297 296 297 297 298 300 301 302
290 290 290 290 289 290 289 287 286 285 285 284 286 284 284 285 285 287 286 286 285 287 284 285 285 284 285 285 286 287 288 288 287 287 287 287 287 286 286 286 285 284 284 284 284 284 284 285 285 285 285 286 286 286 286 286 287 288 287 288 288 289 289 290 291 292 293 294 294 295 295 295 294 294 293 293 293 292 293 293 293 293 294 295 295 296
288 292 290 288 287 288 288 286 286 287 284 282 283 288 289 288 287 284 284 286 282 282 283 284 279 276 280 284 285 286 286 286 286 285 285 285 285 285 284 284 285 285 284 284 283 284 284 284 284 284 284 285 285 285 285 285 286 286 287 287 288 288 289 289 289 291 292 292 291 291 291 290 290 289 289 289 289 290 290 290 291 292 292 292 292 292
290 291 292 291 287 286 286 286 285 289 283 284 287 287 289 287 285 284 284 285 280 279 284 283 281 274 280 284 284 285 284 284 284 284 284 284 284 284 284 284 284 283 284 284 284 284 283 283 283 284 284 284 284 284 284 285 285 285 286 286 287 287 287 288 288 289 290 289 290 289 289 288 288 287 287 288 289 289 289 290 290 290 290 290 290 290
289 289 289 288 287 286 286 285 286 288 285 284 284 284 285 285 285 283 283 284 281 281 282 283 284 278 275 283 287 285 283 283 283 283 283 283 283 283 283 284 283 283 283 283 283 283 283 283 283 283 283 283 283 284 284 285 285 285 285 285 285 286 286 286 287 288 289 288 288 288 288 288 287 287 286 287 288 288 289 288 288 289 289 289 289 289
289 287 287 287 287 285 287 288 286 289 287 284 285 283 283 284 283 282 284 281 281 282 279 279 282 279 276 281 282 285 283 282 283 283 283 284 283 283 283 284 283 283 283 282 282 282 282 282 282 282 282 282 283 284 284 284 284 284 284 285 285 284 285 285 286 286 287 288 287 286 286 286 286 287 286 287 287 287 287 287 287 287 287 288 288 288
289 290 288 289 287 286 287 285 285 290 287 287 284 284 283 283 282 281 279 282 279 279 274 279 281 277 277 280 279 282 284 282 283 283 283 283 283 283 283 283 284 283 282 282 282 282 282 282 282 281 281 282 282 283 284 283 284 284 284 284 284 284 284 284 284 284 285 285 286 285 285 284 285 285 285 285 285 285 285 285 285 286 286 286 286 287
288 290 290 289 288 288 285 285 285 288 287 286 285 286 282 280 280 279 278 277 279 272 276 282 282 283 276 280 281 282 284 283 283 283 283 283 284 284 283 283 283 283 282 281 281 281 281 281 281 281 281 281 282 282 283 283 283 283 283 283 283 283 284 284 283 283 283 284 284 283 283 283 283 283 283 283 283 284 284 283 283 284 284 285 285 285
286 287 289 287 290 287 286 286 284 283 284 285 285 283 282 283 277 276 270 275 273 270 274 277 279 281 274 277 282 281 283 282 284 283 283 283 282 283 283 283 283 282 281 281 280 280 280 281 281 281 281 281 281 282 282 282 282 282 282 282 282 282 282 283 283 283 283 283 283 283 283 282 282 282 282 282 282 282 282 282 282 282 283 283 283 284
285 286 285 288 290 290 285 285 285 283 282 284 282 282 277 273 273 271 270 273 271 273 277 277 280 280 280 281 282 282 282 282 282 284 284 283 283 282 282 282 282 281 280 280 280 280 280 280 280 280 280 280 281 281 281 281 281 281 282 282 282 281 282 282 282 282 282 282 282 282 282 282 283 282 282 282 281 281 282 282 282 282 282 283 283 283
282 281 284 287 289 289 289 286 283 283 283 283 284 279 273 271 270 267 267 264 267 273 276 280 281 278 279 280 281 280 282 282 282 283 285 284 283 282 282 282 281 281 280 280 280 280 280 280 280 280 280 280 280 280 280 280 281 281 281 281 281 281 281 281 281 281 281 281 281 281 282 281 282 281 282 281 281 281 281 282 282 282 282 282 283 283
276 279 283 287 286 288 290 290 288 281 282 284 282 284 281 272 265 268 264 272 274 273 276 277 275 271 276 280 279 282 282 281 281 282 283 282 282 281 280 280 280 280 280 280 280 280 280 280 280 280 280 279 279 279 280 280 280 280 280 280 280 280 280 281 281 281 281 281 281 281 281 281 281 281 281 281 282 281 281 281 281 281 282 282 282 283
281 280 283 286 287 287 288 287 285 283 284 281 281 282 279 280 276 274 271 267 267 271 271 274 275 275 279 281 282 281 281 281 281 281 282 281 281 280 281 281 280 280 280 280 279 279 280 280 280 280 280 280 279 279 279 279 279 280 279 279 280 280 279 280 280 280 280 280 280 280 280 280 281 281 281 281 281 281 281 281 281 281 281 282 282 282
281 280 283 286 286 286 287 286 288 286 281 282 283 279 281 282 283 274 272 272 271 269 274 269 277 280 280 281 280 281 280 280 280 280 280 281 281 280 281 281 280 280 279 279 279 279 280 280 280 280 280 280 280 279 279 279 279 279 279 279 280 279 279 280 280 280 279 279 279 279 279 279 279 280 279 279 279 280 280 280 280 280 280 281 282 282
281 279 283 285 286 287 285 286 286 285 287 285 279 282 284 283 281 279 274 268 264 269 272 270 275 277 278 274 279 280 278 279 279 280 280 280 280 280 281 281 281 280 280 279 279 279 279 280 280 280 281 280 279 279 279 280 281 281 282 281 281 281 281 281 281 281 280 279 279 278 278 278 279 279 279 279 279 279 279 279 279 279 279 279 280 281
286 282 284 286 286 288 285 288 287 288 287 283 282 284 285 279 279 278 271 270 268 266 267 272 275 276 278 279 278 279 278 279 279 279 279 280 280 281 281 281 280 279 280 280 279 280 280 280 281 281 281 281 282 282 282 282 281 281 281 281 281 281 280 280 281 280 280 280 281 280 279 279 279 280 279 279 279 279 278 278 279 279 278 278 279 280
285 282 282 286 287 287 284 284 281 283 287 285 286 286 284 283 276 274 277 272 271 267 268 268 272 277 279 279 281 283 281 280 280 279 280 281 281 282 282 282 281 281 281 280 280 280 280 281 281 282 282 282 281 281 281 281 280 280 280 280 280 279 280 280 280 281 281 282 281 281 280 280 280 280 279 279 278 279 278 278 279 279 279 279 279 279
285 283 275 281 283 284 282 284 283 284 282 284 284 280 283 279 281 279 279 276 277 269 271 272 272 274 276 280 282 283 282 282 282 281 282 282 283 283 283 283 282 281 281 281 281 280 281 281 281 282 282 283 283 283 283 283 283 283 282 281 281 280 279 279 280 280 280 280 279 279 278 278 279 279 279 279 278 278 278 278 279 279 278 278 279 278
283 282 278 278 283 281 281 283 283 284 287 284 286 283 285 281 279 278 278 280 274 275 270 269 274 276 279 283 282 282 282 283 283 283 283 283 283 283 283 282 281 282 282 283 282 282 283 283 283 283 283 284 283 283 283 283 282 282 282 281 280 279 278 279 279 279 279 279 279 278 278 278 278 278 277 277 278 278 278 278 278 278 279 279 279 278
287 283 279 278 280 285 286 288 285 287 286 285 287 286 284 282 281 273 275 273 271 275 270 270 270 276 280 280 281 283 283 284 283 283 283 284 283 283 283 282 281 282 283 284 283 283 284 284 284 283 283 282 282 282 281 281 280 280 280 280 279 279 279 278 278 277 277 277 277 277 277 276 277 276 276 277 277 277 278 278 279 278 278 278 278 279
292 285 283 283 283 283 285 285 286 286 287 287 284 281 282 282 283 282 278 275 272 271 273 271 273 279 282 281 281 281 282 282 282 283 284 284 283 282 283 283 282 283 283 283 283 283 283 282 281 281 281 281 280 280 280 279 279 279 279 278 278 279 278 278 278 277 278 278 277 276 276 276 276 276 276 276 276 276 277 277 277 277 277 278 277 278
286 286 286 280 278 280 282 285 285 285 283 281 281 282 281 281 278 277 276 275 276 276 277 274 274 279 283 280 281 281 282 281 282 281 280 282 282 283 283 282 281 281 281 280 280 281 280 279 279 280 279 279 278 278 278 279 279 278 279 278 278 278 278 277 277 277 277 277 277 276 276 276 275 275 275 275 275 276 276 276 277 276 276 276 276 276
289 285 285 280 278 276 274 275 277 281 283 281 279 280 280 283 279 279 275 276 278 280 280 276 279 283 282 281 283 282 281 282 282 281 280 281 282 283 282 281 281 280 281 280 280 279 279 280 279 279 278 278 278 278 279 279 278 278 278 278 277 277 277 277 277 277 277 277 277 276 276 275 275 275 275 275 275 276 276 276 276 275 275 275 276 276
285 284 286 286 284 281 283 279 280 281 279 279 278 280 281 280 281 281 277 275 278 278 277 280 281 278 280 282 281 282 280 281 282 281 282 282 282 281 280 280 279 280 280 279 279 279 278 278 279 279 278 278 278 278 279 278 278 277 277 277 277 277 277 277 277 276 276 276 275 275 275 275 275 275 274 275 275 275 275 275 275 275 275 276 275 275
284 284 285 285 286 285 279 276 280 283 283 280 279 279 279 278 277 278 278 274 276 275 275 281 276 276 280 280 282 282 281 279 281 280 281 280 281 281 281 279 282 278 278 278 278 278 279 279 279 278 278 277 277 277 276 276 276 277 276 276 276 276 276 277 276 275 275 275 275 275 275 275 274 275 275 275 275 275 275 275 274 274 274 274 274 274
283 284 282 282 280 279 280 281 282 282 282 280 280 280 279 279 275 277 275 280 277 278 277 281 279 279 282 284 282 282 284 284 282 282 282 282 280 279 278 278 279 278 278 278 279 278 279 279 279 278 277 277 276 276 276 276 276 276 276 276 275 275 275 275 275 275 275 275 274 274 274 275 275 275 274 274 274 273 273 272 272 272 272 272 272 272
284 279 280 281 281 281 280 281 282 282 281 281 281 280 280 279 279 280 279 281 279 278 280 280 278 278 282 282 280 282 283 282 282 281 279 278 278 278 278 278 279 278 279 279 279 279 278 278 277 277 277 276 277 277 276 276 276 276 275 275 275 274 275 274 274 274 274 274 273 274 274 274 273 273 272 272 271 271 271 270 270 270 270 270 270 269
287 280 282 280 280 278 277 278 279 279 278 278 280 280 280 279 279 279 279 278 278 277 279 278 278 278 283 283 281 280 279 279 279 280 280 279 278 278 278 278 278 278 279 279 278 278 277 277 276 276 276 276 275 276 276 276 276 275 274 274 274 274 274 273 273 273 272 272 273 272 272 272 271 271 270 270 270 269 268 268 268 267 267 267 267 268
284 278 278 276 278 276 275 275 275 275 276 274 275 277 276 276 275 277 275 277 277 276 278 276 273 276 281 280 279 279 277 279 280 280 279 279 278 278 278 278 278 278 278 278 278 277 276 277 277 276 276 276 276 276 276 276 275 274 274 274 273 273 273 272 272 272 272 271 271 271 271 270 269 268 268 267 267 266 266 266 265 265 265 265 266 266
281 278 276 275 276 275 275 275 274 272 274 274 275 277 277 278 279 278 277 278 280 280 275 272 275 281 281 279 278 277 278 277 277 278 278 278 277 278 278 279 279 278 278 278 276 276 277 277 277 277 276 276 276 276 275 275 274 274 273 273 273 272 271 271 270 270 270 270 269 269 269 268 266 266 265 265 264 264 264 263 263 263 263 263 264 264
281 281 279 279 277 272 272 272 273 271 267 273 278 279 279 277 277 275 276 278 278 279 276 280 279 279 278 277 278 279 278 278 279 279 279 280 279 278 278 278 278 278 277 275 276 277 278 277 276 276 276 276 275 275 274 274 274 273 273 272 271 270 270 269 269 269 268 268 268 267 267 266 263 263 263 263 263 262 262 262 262 262 263 263 263 263
278 279 276 275 273 270 270 271 271 267 271 276 274 275 276 277 277 277 277 277 277 278 278 277 277 277 278 279 279 279 278 276 274 276 276 277 279 279 279 277 277 275 275 275 276 276 277 277 276 276 275 275 274 273 273 273 273 272 271 271 270 269 268 268 267 267 268 266 266 265 264 264 263 262 262 262 261 261 260 261 261 261 261 261 261 261
279 278 276 273 272 271 269 272 266 269 277 275 276 275 276 275 275 274 272 275 276 276 278 277 278 279 279 279 279 275 276 274 275 275 274 274 276 278 276 277 276 275 275 276 276 277 276 276 276 276 275 275 273 272 272 272 271 270 269 269 269 267 268 266 266 266 266 264 264 263 264 262 261 261 260 261 260 259 260 260 260 260 260 260 260 260
283 279 277 274 278 269 272 270 273 274 276 279 278 273 275 273 273 272 268 272 276 276 276 277 278 278 278 279 275 273 274 274 274 275 274 275 276 275 277 277 277 277 277 276 277 277 278 278 277 276 274 273 272 271 271 270 269 268 267 266 265 265 265 265 264 264 264 263 263 262 262 262 261 260 260 260 259 258 259 259 259 259 260 259 259 260
282 280 280 277 274 274 269 269 267 267 268 273 278 275 277 276 276 275 273 268 275 270 276 277 277 278 277 274 272 272 273 274 272 274 276 277 276 276 276 277 276 276 276 277 276 276 276 276 275 274 273 271 270 270 269 268 267 266 265 265 265 263 264 263 263 263 262 262 261 262 262 261 259 259 259 258 258 258 259 259 259 258 259 259 258 258
279 280 278 279 274 270 269 269 269 268 270 274 270 273 274 275 275 273 269 265 272 269 273 276 276 273 273 274 271 273 272 267 270 274 277 277 277 276 276 276 276 276 276 276 276 276 275 275 274 272 271 270 268 268 267 265 265 264 264 264 264 263 262 263 263 262 261 262 262 261 260 259 259 259 258 257 258 257 257 258 258 258 258 258 258 258
274 273 275 273 270 272 270 269 269 267 268 269 265 272 274 273 274 273 259 261 268 272 273 274 275 273 273 274 273 273 273 267 271 275 276 276 277 277 277 277 276 275 275 275 275 276 275 273 271 269 269 268 268 266 265 263 263 263 263 264 263 262 261 263 262 262 262 261 261 259 258 258 258 258 257 257 257 257 257 258 257 257 258 258 257 257
274 272 274 272 274 273 274 266 264 266 273 271 272 273 274 273 270 262 264 268 271 272 273 275 275 275 274 273 274 271 275 277 277 279 277 276 275 275 275 276 277 276 276 275 275 275 272 272 272 271 269 268 266 265 264 263 263 262 262 263 262 261 262 262 262 261 261 261 259 258 257 257 256 257 256 257 257 257 257 257 257 257 257 256 257 256
268 270 270 272 270 270 270 269 269 271 272 269 271 276 276 273 263 266 272 274 275 273 274 275 276 275 274 274 274 276 277 278 278 276 275 274 277 278 277 275 274 274 274 274 274 272 271 270 269 267 267 266 265 264 262 262 262 262 261 261 260 260 262 261 261 260 258 258 257 256 255 255 256 256 256 256 256 256 256 257 256 256 256 256 256 255
269 269 267 271 272 270 269 267 267 264 273 276 275 274 274 268 269 274 273 274 275 275 275 275 276 276 275 274 275 276 277 277 276 276 276 275 275 276 276 274 274 274 273 272 271 271 271 269 268 267 266 264 263 263 262 260 259 260 259 259 259 261 259 260 259 259 258 256 255 255 254 254 255 255 255 255 256 255 255 256 255 255 255 255 255 255
270 263 261 267 274 265 269 265 267 274 274 277 277 272 273 277 275 274 276 274 274 274 274 274 275 276 275 276 275 275 276 276 276 275 274 274 274 275 274 274 274 274 273 273 273 271 269 269 267 266 264 263 262 262 262 259 259 258 258 259 261 260 258 257 257 256 255 254 253 253 254 253 254 254 254 254 254 254 254 254 254 255 255 255 255 254
273 268 268 265 270 268 267 273 274 273 276 278 279 278 279 281 278 274 276 277 275 274 274 275 275 275 275 276 276 276 276 276 276 277 276 276 276 275 275 274 274 274 274 273 272 269 269 269 266 264 263 262 261 260 259 258 257 257 256 259 259 258 257 256 254 253 252 251 251 252 253 253 253 253 254 254 254 254 255 254 253 254 254 254 254 254
269 273 271 269 269 273 273 274 273 272 274 277 279 279 279 279 278 276 276 275 275 275 276 276 276 276 276 276 275 275 275 276 276 276 276 275 275 275 275 273 273 272 271 269 267 267 266 265 263 263 262 260 260 260 258 258 257 256 257 258 258 257 256 254 253 252 252 252 252 253 253 253 254 254 254 254 254 254 255 254 254 254 254 254 254 254
270 272 270 270 270 269 266 272 273 274 273 276 278 279 277 277 278 277 276 277 277 276 276 276 277 277 277 276 275 276 276 276 276 276 276 275 275 275 274 274 274 273 271 270 268 265 263 264 263 263 262 262 260 259 257 255 256 256 257 255 257 256 254 252 252 253 252 252 252 252 252 253 253 254 255 254 255 255 255 255 254 254 254 254 253 254
270 273 271 272 269 270 268 271 273 274 274 275 277 277 278 279 277 275 277 278 277 276 275 276 275 274 275 274 275 275 276 277 275 276 276 276 276 276 274 273 273 271 269 268 266 265 264 264 264 262 261 262 261 260 259 258 256 255 254 254 256 253 252 252 252 252 251 252 251 252 253 253 255 256 254 254 254 254 254 254 254 253 254 254 254 255
273 273 263 269 271 271 273 273 273 274 275 275 275 277 279 279 278 276 276 276 275 275 275 274 274 276 275 276 276 275 274 275 275 275 275 276 275 274 274 274 272 271 268 266 264 264 265 264 263 262 261 261 261 260 260 257 255 254 255 257 254 252 251 252 253 251 251 251 252 252 254 254 254 253 254 254 254 254 254 254 254 255 255 257 257 257
272 272 272 270 267 264 268 274 275 267 269 275 277 278 278 277 276 276 275 274 274 274 274 274 275 275 275 276 275 274 274 275 276 274 274 275 275 275 274 272 270 269 267 266 263 264 263 262 262 260 260 260 260 258 257 256 255 253 256 254 253 252 251 252 251 250 250 251 251 252 252 253 253 252 254 253 253 254 254 258 262 262 260 260 264 267
274 275 273 271 271 268 274 277 277 278 278 278 279 279 278 277 276 275 276 276 277 276 276 275 275 275 273 273 274 275 274 275 276 275 273 274 274 274 273 270 268 266 265 263 263 262 262 261 260 259 258 259 258 256 255 256 256 254 253 254 254 252 251 250 251 251 252 252 252 253 254 253 253 253 253 253 254 253 254 254 256 261 264 265 266 267
Wind_Speed
1 3 5 8 9 10 8 11 13 5 2 2 2 2 5 5 6 4 3 6 0 2 5 4 3 4 9 8 6 7 5 10 9 7 7 6 7 7 6 7 7 8 7 6 6 7 9 9 9 8 9 9 11 13 13 13 13 13 11 13 14 10 11 11 10 9 8 8 6 8 8 7 7 8 9 11 9 10 9 11 11 11 9 9 9 8
3 4 9 10 10 12 10 6 3 1 0 1 2 2 7 3 9 4 4 1 1 2 3 0 3 7 9 5 6 6 9 10 6 6 7 7 6 6 7 7 7 4 4 6 9 10 9 9 10 9 9 11 14 13 12 13 11 11 12 13 11 10 11 11 9 7 7 6 3 4 4 6 7 9 10 9 10 9 9 12 12 11 11 11 11 10
2 8 11 14 7 2 1 3 4 6 5 1 4 3 3 7 3 10 5 3 1 3 7 2 2 9 10 3 5 7 8 5 6 5 4 6 6 6 6 6 6 6 7 8 8 8 8 9 10 9 9 10 9 10 12 10 13 14 13 11 10 10 10 10 10 9 7 5 6 6 6 5 6 6 6 8 8 9 10 12 12 12 12 11 11 11
3 5 17 6 3 4 1 2 4 2 1 4 1 1 7 3 1 6 2 2 1 1 2 0 4 8 4 6 8 4 4 6 6 8 9 7 7 8 7 5 6 6 8 9 8 8 8 8 8 10 11 9 9 11 12 13 12 11 11 11 11 11 10 10 10 9 6 5 4 6 7 8 10 5 5 8 12 13 14 13 12 12 11 12 11 12
11 8 2 3 5 5 5 2 4 4 4 3 5 4 4 4 5 8 5 2 1 0 1 1 3 6 2 1 2 3 4 7 6 6 7 7 6 4 4 7 6 7 6 6 7 8 9 11 12 10 8 8 12 12 12 11 11 8 10 10 10 10 10 10 11 10 9 11 11 8 9 9 10 12 12 12 12 10 9 11 12 11 12 12 12 11
9 7 3 4 2 2 4 2 5 7 4 3 6 11 10 8 6 4 4 4 6 2 3 2 4 3 3 6 3 3 3 5 3 7 7 6 7 6 7 7 5 5 4 4 5 7 6 7 8 10 10 11 10 11 9 8 9 9 10 10 11 10 10 11 11 10 10 10 10 11 11 11 9 10 11 11 9 10 10 8 5 11 12 12 11 11
7 1 4 5 3 3 3 4 4 7 5 1 5 7 10 5 3 2 1 1 1 1 1 2 1 6 7 7 1 2 5 5 3 6 4 5 5 5 5 4 4 4 5 4 5 5 8 8 9 10 10 9 10 8 6 7 8 9 9 9 10 10 10 10 11 11 9 11 10 11 10 9 8 8 6 4 5 6 6 7 10 8 10 11 11 11
1 2 1 2 3 3 3 5 4 8 5 4 1 3 4 4 4 4 4 3 2 1 4 1 1 4 3 7 4 6 6 3 4 3 3 3 3 4 3 3 3 4 3 3 5 6 6 6 7 8 7 8 7 5 6 7 8 10 10 10 11 10 11 10 9 12 10 10 9 10 10 9 9 8 6 7 6 7 7 11 10 9 9 10 10 11
3 1 2 2 2 3 7 5 3 6 5 3 1 5 3 4 3 5 2 2 0 1 6 4 0 2 3 7 3 4 4 1 1 1 1 1 2 2 3 2 2 2 2 3 4 5 5 6 6 5 7 5 6 7 8 7 6 6 8 9 10 12 11 10 11 11 11 11 10 9 8 11 8 7 7 5 7 9 8 11 10 11 10 11 11 12
1 1 3 6 5 7 3 2 4 10 5 2 5 6 6 6 5 3 2 2 1 1 5 4 2 3 6 6 3 2 0 2 6 5 4 3 2 1 1 1 1 1 2 3 3 3 4 4 5 4 3 7 7 5 5 5 6 7 8 11 13 13 10 9 11 11 12 11 9 12 11 11 9 7 6 8 10 9 7 10 10 8 9 9 10 10
1 4 5 4 5 4 4 2 1 0 1 5 5 4 3 7 2 3 5 3 1 3 6 9 7 6 5 4 5 4 3 1 1 1 1 1 1 0 0 0 0 1 2 2 3 3 4 3 4 4 7 5 6 5 6 8 8 7 9 9 13 9 9 10 10 11 12 11 11 11 11 11 10 9 9 11 11 10 11 10 9 9 7 7 8 8
3 2 0 1 3 3 3 3 4 2 1 4 2 2 4 3 5 2 3 4 1 6 5 2 5 5 6 4 2 2 1 2 4 5 9 6 4 4 3 1 0 1 1 1 3 4 4 5 6 5 7 7 5 7 9 7 7 8 7 8 12 11 10 9 9 11 11 10 10 9 10 11 9 9 9 11 10 9 10 9 8 6 7 8 7 8
2 5 2 5 3 7 1 6 3 4 2 3 5 4 2 4 5 3 2 2 5 6 1 2 3 1 8 6 1 4 3 4 3 4 10 10 8 6 4 3 1 0 1 2 2 3 3 4 4 5 4 4 6 7 6 6 5 5 7 8 12 10 8 8 8 10 9 10 10 9 9 8 8 9 9 8 8 6 7 7 9 9 9 8 10 9
6 1 0 3 3 4 6 6 2 0 1 5 5 5 4 0 1 4 4 1 5 5 4 1 1 2 3 5 1 3 3 3 6 6 10 10 10 8 6 4 2 1 1 1 1 1 1 2 2 2 3 4 4 4 5 4 5 5 7 7 11 8 6 6 8 8 10 9 8 7 7 7 7 7 7 7 7 6 6 6 7 7 7 8 8 8
1 2 5 6 4 2 6 8 9 5 7 7 2 7 8 8 5 4 3 5 5 3 1 4 1 5 3 3 0 2 1 2 2 3 7 5 5 5 3 2 1 1 1 1 1 1 2 1 2 3 3 4 4 4 4 4 5 5 6 7 8 8 7 7 7 8 9 8 7 6 6 6 5 6 6 6 6 6 7 7 7 7 7 7 7 7
7 6 3 3 1 2 8 1 6 5 4 1 2 5 5 7 6 5 4 2 2 2 3 1 5 3 3 1 1 0 2 3 3 4 5 5 4 3 3 4 4 3 2 2 2 1 1 1 1 2 3 3 3 3 3 4 4 4 4 5 5 6 4 5 6 6 6 6 6 6 7 7 6 6 6 6 6 7 6 6 7 7 6 6 6 6
1 3 1 3 2 2 2 3 1 3 5 3 4 5 6 2 4 1 2 1 2 3 8 2 6 3 1 0 1 1 3 1 1 3 4 5 4 4 5 5 4 4 3 3 3 3 2 1 1 2 3 3 3 3 4 3 3 4 4 5 6 5 5 6 5 5 4 5 6 5 5 5 6 6 6 6 6 6 5 5 5 6 5 4 5 6
6 5 1 4 3 0 0 1 2 4 3 7 2 7 1 2 4 4 4 2 2 4 7 3 7 3 1 7 2 0 3 3 3 5 5 5 4 5 7 6 6 5 4 4 4 4 3 3 3 3 2 3 4 4 4 4 2 3 4 5 6 5 6 4 4 4 4 4 5 4 4 4 4 5 5 5 5 4 5 4 4 3 5 4 3 3
4 4 2 0 2 2 2 1 4 1 1 3 2 2 3 3 1 2 4 3 3 4 5 4 2 4 8 6 3 5 8 8 6 5 5 6 6 8 6 6 4 4 4 4 5 4 4 4 4 4 4 3 3 3 4 4 3 3 3 3 4 4 3 3 2 2 2 2 3 3 4 4 4 4 4 3 3 2 4 5 5 5 4 4 4 5
1 3 4 1 3 1 1 4 6 3 1 1 1 2 1 1 2 4 5 3 5 4 1 7 1 8 5 5 12 10 11 10 10 7 9 9 9 9 8 8 8 7 7 6 6 5 5 4 4 5 5 4 4 4 3 3 3 5 4 4 3 2 2 2 3 2 3 2 3 3 3 3 2 2 3 2 4 4 4 4 5 5 7 7 6 6
2 1 5 1 2 2 2 3 7 9 7 1 1 2 0 1 2 3 1 4 4 4 5 4 8 4 4 5 9 9 13 15 14 14 11 10 11 10 9 9 9 8 8 7 6 5 5 5 4 4 3 3 2 1 2 3 3 2 3 3 3 3 3 4 3 3 3 3 4 4 5 4 4 5 4 5 5 4 4 4 4 4 3 4 5 4
2 1 7 0 2 3 5 1 3 5 5 7 9 8 9 7 3 4 9 3 1 3 6 4 13 5 4 1 3 4 8 12 11 12 12 11 11 10 8 6 6 8 7 6 6 5 5 5 5 3 2 1 1 2 3 1 2 2 2 1 2 2 2 2 3 3 3 3 3 4 4 4 3 3 4 4 4 4 4 4 4 4 5 5 6 5
3 2 5 4 6 8 3 0 1 1 1 1 5 6 5 2 4 3 8 6 1 4 4 2 0 8 2 1 1 5 10 10 10 9 11 10 10 9 8 6 5 6 6 6 6 6 6 6 6 5 5 4 4 3 2 1 1 1 1 0 0 0 1 0 1 1 1 2 3 3 3 3 3 3 4 4 4 5 5 5 6 5 5 6 6 5
5 2 1 1 2 3 3 2 2 2 2 1 1 2 4 7 7 9 5 5 6 1 1 1 4 4 2 2 0 3 2 2 4 7 10 8 6 5 5 6 7 5 5 4 4 5 6 5 4 4 4 4 3 3 4 4 2 1 1 2 1 2 3 3 2 2 2 2 3 3 4 4 4 4 4 4 4 5 5 5 5 5 5 5 5 7
3 3 5 1 1 2 5 3 2 2 2 2 2 3 2 2 4 2 4 1 1 7 6 5 13 7 0 3 1 4 3 4 6 5 3 5 4 5 7 5 4 4 4 5 6 6 5 4 4 5 5 4 4 4 3 3 3 2 3 2 2 2 3 4 4 3 2 2 3 4 4 5 5 4 5 5 5 5 5 5 5 5 4 5 5 4
4 3 6 8 11 10 7 7 8 9 9 3 1 1 3 6 6 3 3 3 8 3 7 3 10 2 2 3 1 0 2 2 4 4 4 4 5 6 5 5 4 4 6 6 6 5 6 6 5 4 5 4 4 4 4 4 3 2 1 4 3 1 2 1 1 1 1 1 1 3 5 4 5 5 5 5 4 5 5 5 4 4 4 4 5 5
2 0 5 9 9 11 10 4 3 4 3 6 4 6 6 3 5 4 4 4 11 1 6 9 9 1 3 3 4 7 3 6 7 5 5 6 7 6 5 3 4 5 7 8 7 5 4 4 6 6 5 4 4 3 1 0 1 1 1 1 3 1 1 1 1 1 0 1 2 3 4 4 4 3 3 3 4 4 3 4 4 5 6 6 6 7
3 3 8 10 12 9 3 3 5 7 9 5 8 7 5 6 6 9 11 8 4 2 12 7 5 4 9 6 8 7 6 6 7 4 5 5 7 6 4 3 4 4 4 4 5 6 7 7 5 5 4 3 3 0 1 1 2 2 2 3 2 3 3 2 2 3 3 4 4 4 2 2 3 2 3 3 3 3 4 5 5 6 6 6 7 7
5 9 4 5 6 2 0 3 4 3 1 5 8 7 9 8 6 12 6 7 8 11 15 6 7 7 10 11 7 10 12 11 8 10 10 7 2 0 3 5 6 7 5 6 8 7 7 6 5 5 4 4 3 3 3 3 3 4 4 3 3 3 3 2 4 5 5 4 3 3 2 2 3 3 3 3 3 4 5 5 5 6 6 5 6 6
3 5 4 2 4 3 2 3 1 5 2 1 4 7 7 10 12 10 9 10 9 6 7 5 4 11 11 7 6 9 6 5 6 4 2 2 5 6 5 6 7 7 8 9 8 7 6 5 4 4 4 4 5 4 4 4 4 4 5 4 3 3 2 3 4 4 3 4 2 2 1 1 2 2 2 3 4 5 6 6 7 7 7 7 6 6
5 4 7 3 3 2 2 1 1 2 3 5 8 9 7 2 5 9 7 3 1 6 10 9 10 15 11 6 5 3 4 4 4 8 8 4 5 7 8 7 7 8 8 7 7 6 5 4 5 4 4 4 4 5 5 5 5 4 4 3 3 3 2 3 4 3 4 3 2 2 2 3 4 5 6 6 7 6 7 9 8 8 7 7 7 8
2 4 3 1 4 3 1 3 3 3 1 4 8 13 5 5 8 7 7 6 7 11 11 7 7 11 14 1 4 3 4 6 10 9 6 6 7 6 7 7 7 8 8 8 6 4 4 5 6 5 5 4 4 6 7 6 5 4 4 3 3 2 2 3 4 5 4 3 3 4 5 5 5 6 6 6 6 7 6 7 7 8 8 9 10 9
5 6 5 3 5 4 0 2 4 4 2 7 17 16 9 12 11 1 2 6 14 11 7 9 13 13 8 1 1 5 8 7 5 5 8 5 4 7 9 9 8 7 8 6 6 6 7 8 8 7 5 5 6 6 4 5 5 4 3 3 2 2 3 4 4 4 3 3 3 4 4 4 4 4 4 5 6 6 6 7 7 7 8 9 8 9
4 8 7 5 8 3 2 3 2 2 7 14 1 5 13 12 12 12 11 14 10 8 8 11 11 5 1 3 7 11 9 7 7 7 5 7 7 7 5 5 7 7 5 5 7 9 9 5 4 5 6 6 5 4 4 4 5 4 3 3 3 3 3 4 4 4 3 3 3 3 3 4 4 4 4 4 5 5 6 6 7 6 6 7 8 7
3 1 3 1 5 4 1 1 2 9 14 1 2 2 2 5 6 14 13 7 6 10 9 8 7 6 9 9 10 9 3 2 3 5 6 7 6 8 9 8 7 6 7 7 7 7 7 7 5 5 5 6 7 6 6 5 4 4 3 3 4 3 5 4 3 3 3 3 3 3 3 4 3 4 4 4 5 5 5 6 6 6 6 6 7 8
5 6 3 2 4 3 2 6 5 7 1 3 4 2 2 3 1 1 5 7 10 11 12 11 12 11 10 10 5 0 1 1 1 3 4 4 6 8 7 7 8 7 7 8 10 9 8 8 11 11 9 5 6 5 4 5 4 4 3 3 5 4 4 3 3 3 2 2 2 3 3 3 4 4 4 5 5 5 7 6 5 7 7 6 6 5
8 4 2 3 3 5 4 8 10 5 12 12 9 4 6 6 6 7 7 9 10 7 9 9 11 12 9 7 1 2 2 1 1 4 3 5 5 4 8 8 8 9 8 7 9 11 10 9 9 7 7 7 6 6 5 4 3 4 4 3 3 4 2 2 2 2 1 1 2 2 3 4 4 5 5 5 6 6 6 7 7 6 5 7 6 7
1 8 4 4 4 6 5 4 3 1 11 12 7 0 1 1 4 5 3 6 6 3 8 10 10 14 8 2 3 3 3 2 5 7 6 7 6 6 6 6 4 5 7 7 5 4 5 5 5 5 8 8 6 4 4 4 4 4 4 3 3 3 1 2 2 1 1 1 1 3 4 3 4 5 6 5 6 7 7 6 5 5 5 7 9 8
4 3 1 6 3 4 2 5 6 8 10 6 3 3 1 1 7 4 1 7 6 6 9 11 10 6 5 7 5 6 5 5 8 7 7 7 7 5 7 8 7 7 6 7 10 10 8 8 8 8 7 7 7 5 4 4 5 4 3 3 2 1 1 1 1 1 1 1 2 2 3 3 3 4 5 6 7 6 8 7 7 6 5 6 6 8
3 1 2 1 3 5 4 6 10 4 6 4 3 2 2 2 4 5 2 8 4 7 6 7 8 7 8 6 8 8 9 8 8 7 5 8 10 9 9 8 6 5 5 5 3 6 9 9 9 6 8 9 8 6 6 4 4 3 3 2 2 1 2 3 2 1 0 1 2 2 3 3 4 4 5 7 7 6 7 6 6 6 6 6 6 7
4 1 3 11 11 10 10 5 3 6 7 4 6 4 2 2 5 4 9 8 3 6 7 7 8 9 8 8 8 8 9 9 9 9 5 3 2 3 4 5 6 7 9 8 8 8 9 9 10 12 10 7 8 7 5 4 4 3 3 3 2 4 3 3 2 1 0 1 2 2 3 3 3 6 6 5 7 6 6 6 7 7 6 7 7 6
3 3 5 2 7 11 7 6 9 6 7 6 4 9 7 4 3 10 5 3 9 7 5 9 9 6 8 11 9 9 9 10 8 1 1 4 9 11 9 7 3 2 1 2 6 8 8 8 6 6 5 6 8 7 5 4 5 3 4 3 4 4 3 2 1 0 1 2 2 3 3 4 4 4 5 5 6 7 7 6 5 6 7 6 6 8
10 9 7 9 3 4 2 5 2 8 5 13 10 4 2 5 7 4 2 0 4 8 8 7 7 5 8 8 9 10 9 7 7 8 7 6 6 8 7 8 9 9 9 7 5 6 9 9 9 9 9 6 6 6 4 5 5 4 4 4 4 3 3 2 1 1 1 2 3 3 4 4 5 6 5 6 6 6 8 6 5 6 6 7 7 7
4 5 3 4 5 7 8 9 11 8 4 12 14 9 6 10 6 6 6 4 4 5 7 6 7 7 7 8 9 9 10 9 7 5 5 4 6 6 4 4 5 5 5 7 9 12 10 9 7 7 6 6 5 4 4 5 5 4 4 5 2 3 2 1 0 1 1 2 3 4 4 5 5 5 5 6 6 6 7 7 6 6 5 6 6 7
8 9 8 7 5 9 10 10 3 4 8 7 8 6 9 13 6 7 5 5 6 6 5 6 8 7 8 9 9 9 8 9 11 11 9 10 9 9 9 11 12 13 13 13 12 10 9 12 11 8 6 5 4 4 4 4 5 4 4 2 3 1 1 1 1 1 2 4 4 4 4 5 5 6 6 6 6 6 7 7 5 6 5 5 5 6
4 2 3 3 5 3 3 4 1 1 4 9 6 5 7 8 5 4 6 5 4 5 9 7 6 6 7 8 8 7 8 9 9 9 8 7 7 8 7 5 5 5 4 3 3 8 7 6 7 8 8 5 4 4 4 4 4 4 3 2 2 1 1 1 1 2 4 4 4 4 4 5 6 6 6 6 5 6 6 7 6 6 7 5 6 5
4 2 2 4 3 3 7 2 6 7 4 6 12 10 5 4 6 6 5 6 6 5 7 5 7 6 7 7 10 11 11 10 10 10 8 6 7 8 8 9 10 10 12 13 9 9 8 9 9 9 9 9 5 5 4 4 3 4 2 2 2 2 1 1 1 3 4 4 4 4 4 5 6 6 5 5 5 5 6 5 5 6 7 6 6 6
5 5 4 6 3 6 6 4 5 0 1 6 9 8 9 13 7 4 7 7 7 5 5 7 4 5 3 4 9 9 11 10 8 9 8 8 9 9 8 8 9 6 5 5 7 9 7 9 10 10 9 8 7 6 6 4 4 3 3 3 2 1 1 1 2 3 4 4 4 4 4 5 7 7 6 6 5 6 7 5 5 6 7 8 6 7
4 5 5 5 6 4 1 3 2 1 2 5 7 8 11 8 6 6 7 7 6 6 7 5 4 7 6 9 7 7 7 10 9 9 9 9 7 6 8 9 7 7 8 10 9 10 11 10 9 9 9 8 6 7 6 5 4 3 4 3 2 2 2 2 3 3 4 4 4 5 4 5 5 6 6 7 6 6 7 8 6 7 8 9 8 8
4 8 2 4 5 2 6 9 6 2 5 8 11 14 14 9 6 7 5 5 7 8 8 6 7 7 8 8 6 6 8 10 10 7 8 10 10 9 7 6 6 8 8 7 9 8 8 8 10 10 9 7 7 6 5 4 3 3 4 3 2 3 3 3 3 3 4 4 4 4 4 5 5 5 6 6 7 8 8 9 14 10 8 9 13 17
10 14 7 9 10 7 9 11 10 11 8 7 9 10 9 7 6 7 9 10 10 9 7 7 8 8 6 9 7 9 10 10 12 8 7 8 10 8 5 6 8 8 9 12 11 9 10 9 7 7 7 6 5 4 4 3 3 3 3 4 3 4 4 4 3 3 4 3 4 4 4 5 5 5 5 5 6 6 8 11 10 12 15 16 15 16
Wind_Direction
118 138 183 211 217 211 211 201 207 216 136 122 117 150 223 230 272 286 267 253 147 329 248 273 277 267 284 284 329 348 353 28 19 62 70 64 64 56 52 50 43 40 33 356 6 14 13 9 11 12 15 15 27 25 21 30 28 30 28 31 29 14 17 23 16 22 28 30 31 43 51 57 39 41 41 40 26 36 34 32 33 32 30 27 29 25
75 184 235 227 220 209 217 217 250 327 83 185 264 247 277 213 264 258 256 349 317 147 289 68 328 279 266 304 353 355 37 26 14 62 67 70 63 58 52 46 35 29 24 13 21 16 15 16 15 18 23 21 30 18 22 28 27 29 30 36 28 20 24 26 20 14 36 25 40 82 53 77 47 39 42 36 27 23 32 34 32 28 26 29 31 30
141 201 234 233 228 72 101 156 189 201 232 184 214 241 291 270 245 275 273 314 271 93 268 18 320 287 290 25 32 45 61 44 34 47 54 69 62 53 45 39 36 34 28 24 22 16 20 18 21 27 27 30 31 28 27 21 29 27 29 28 28 25 26 23 20 24 26 16 28 50 42 54 83 57 53 56 39 31 35 35 31 26 24 24 27 25
237 278 244 245 113 200 285 109 113 106 92 151 115 130 234 230 13 300 293 10 25 157 267 225 264 281 291 94 66 37 75 76 60 62 61 52 63 56 47 35 34 31 27 26 13 12 14 23 27 31 30 24 32 32 28 24 27 29 28 26 28 29 27 24 22 30 22 39 42 46 57 55 68 59 34 48 37 29 30 30 26 28 23 25 28 24
210 226 279 125 167 159 220 150 137 137 233 259 191 197 238 240 226 187 250 334 281 38 68 304 297 304 313 321 98 80 90 77 55 57 51 43 46 51 58 51 36 40 22 21 16 16 20 28 28 27 24 23 36 32 28 23 25 29 28 26 31 33 30 27 22 24 31 41 39 34 46 46 41 30 28 30 25 23 26 30 26 20 23 26 28 25
274 257 97 64 84 162 189 216 190 144 223 309 226 201 215 218 221 261 323 17 14 344 333 32 356 317 304 308 190 146 40 49 23 55 40 34 34 30 42 35 25 28 26 26 22 21 21 30 29 30 27 32 33 32 22 18 25 30 31 32 35 37 34 29 27 25 41 51 54 48 46 41 41 40 27 25 12 10 20 17 13 29 29 26 26 25
224 297 169 198 149 160 182 215 237 163 178 60 272 198 222 205 178 153 194 89 306 211 308 43 89 264 325 326 214 146 89 65 34 49 42 35 37 37 36 31 21 18 15 18 31 29 36 24 35 32 30 25 33 23 11 24 29 32 36 37 40 41 37 30 30 29 40 52 54 62 66 66 60 64 43 28 22 23 11 24 30 27 30 30 30 24
168 308 127 93 128 148 191 245 238 159 122 238 245 133 136 140 164 183 146 150 213 272 305 26 146 253 295 275 290 135 95 75 51 36 34 44 45 45 40 24 16 9 7 17 32 34 35 35 34 34 22 26 26 8 23 35 30 34 34 40 41 42 41 34 31 39 38 54 50 56 59 57 56 57 48 27 27 31 26 34 23 23 24 27 31 27
152 297 162 178 171 168 216 209 195 165 144 220 187 111 126 150 162 134 98 128 131 51 287 315 7 329 250 262 359 136 120 68 107 177 128 111 82 74 50 20 5 0 3 24 42 37 31 30 27 22 30 15 27 24 30 31 30 35 39 45 48 47 42 33 37 47 44 52 54 57 56 59 45 49 46 43 43 40 30 43 28 30 23 24 25 26
330 200 227 168 150 221 221 297 185 165 198 264 130 82 77 71 65 92 99 92 2 68 263 257 187 227 280 266 333 14 267 242 208 192 191 166 149 121 90 32 358 355 19 20 39 42 38 27 25 11 23 37 27 21 30 39 39 41 44 45 50 43 40 34 40 47 51 52 56 59 55 61 52 42 42 48 43 38 31 44 35 30 31 26 27 23
275 302 154 127 195 211 132 49 127 339 108 112 91 81 19 42 52 38 62 101 66 246 243 220 202 178 289 268 212 143 205 266 107 130 165 160 126 32 239 231 287 11 14 17 24 31 37 19 28 14 46 31 30 28 40 40 39 38 44 48 56 46 44 38 41 45 48 49 50 58 56 57 54 45 47 45 38 31 34 36 31 31 30 31 30 24
351 358 330 258 78 113 99 75 26 66 75 111 110 125 32 335 12 35 345 39 139 268 258 269 212 172 179 288 265 221 326 254 222 196 175 177 191 186 190 225 219 11 7 8 32 31 22 29 28 31 41 33 27 38 38 36 37 42 42 50 59 43 38 38 39 48 47 50 52 56 57 59 54 52 52 52 46 35 39 32 31 21 33 30 31 30
277 232 238 328 203 131 88 72 345 18 16 81 78 48 116 262 32 316 14 283 213 223 199 359 142 81 241 225 199 305 298 309 255 227 182 170 179 188 202 202 194 2 23 37 36 34 36 46 34 41 35 37 39 44 39 39 41 47 52 52 64 48 36 42 42 53 50 52 50 51 55 58 57 57 57 56 57 40 44 34 33 28 28 19 24 19
275 277 68 250 360 210 136 144 183 76 233 119 151 142 94 275 240 260 272 239 309 293 276 209 127 268 246 291 144 252 295 291 284 244 165 166 172 180 187 186 165 121 74 66 55 60 63 68 61 57 63 58 50 42 43 40 48 48 55 53 66 55 40 44 51 52 56 52 51 50 58 58 59 60 59 54 58 45 50 42 44 39 30 27 24 14
168 337 269 144 230 171 174 191 185 165 162 206 115 151 183 143 151 240 187 217 224 207 275 279 48 230 136 218 219 242 279 321 332 70 126 147 168 175 170 170 165 140 134 121 122 144 139 112 90 81 70 70 65 55 45 45 45 53 55 55 61 58 37 47 51 53 57 54 52 54 57 61 61 65 62 59 53 45 42 34 42 35 26 29 13 15
189 206 253 225 221 141 180 250 118 101 59 201 167 80 91 227 128 217 203 160 247 332 336 203 203 189 163 128 193 89 43 40 35 100 126 144 169 156 165 184 186 184 185 188 175 181 183 158 127 97 91 92 88 76 65 59 62 71 73 75 74 75 63 56 58 57 61 56 55 48 51 49 52 54 57 52 42 39 41 35 39 28 27 20 13 8
69 280 274 338 111 152 197 148 234 141 212 222 105 199 210 140 120 61 18 38 80 43 256 144 307 298 293 154 110 24 71 34 84 133 148 171 183 185 193 197 195 198 194 199 195 195 181 175 157 144 134 120 109 102 98 96 98 100 90 81 72 63 57 52 55 62 58 57 60 46 52 49 52 53 56 55 45 40 33 40 30 31 11 10 14 3
145 232 273 123 215 17 145 193 103 23 154 100 185 234 159 134 115 135 228 335 66 205 267 90 208 271 109 281 91 344 121 186 211 187 193 198 191 197 208 198 196 195 198 204 204 202 188 170 156 158 159 147 143 141 130 121 129 105 95 86 82 68 66 47 54 58 58 64 65 61 57 55 62 62 53 50 47 36 45 32 31 19 19 9 345 359
119 279 262 242 150 295 7 112 38 352 44 147 197 209 121 231 207 312 85 270 262 262 266 286 220 243 190 233 119 239 187 200 202 202 194 211 211 212 212 214 211 216 204 201 203 198 195 180 165 161 157 166 154 144 136 138 128 113 110 110 101 104 123 132 139 132 101 78 84 82 71 67 57 60 61 52 52 51 47 31 22 22 5 356 1 3
31 171 290 324 137 298 33 87 197 226 340 65 69 73 316 113 182 122 202 181 117 259 30 284 351 254 198 214 181 204 188 175 182 186 205 204 204 203 204 201 195 198 203 200 196 194 185 181 175 165 162 162 158 148 149 125 90 64 66 76 80 96 114 103 71 79 69 54 72 62 75 66 79 77 70 67 45 35 35 21 20 8 8 356 352 358
174 114 227 293 306 71 175 185 209 167 165 156 155 262 314 14 224 102 42 141 188 186 215 266 290 273 263 200 179 202 175 178 174 184 192 198 207 207 204 194 197 200 201 200 194 188 181 180 190 187 179 169 160 117 73 73 90 101 66 68 66 69 29 37 17 41 35 35 32 47 37 22 25 21 19 23 23 24 8 4 7 5 341 341 347 351
123 178 190 251 131 214 232 244 192 183 192 173 175 202 185 138 166 202 252 73 134 134 232 176 255 276 264 154 185 162 170 172 190 176 185 198 207 204 211 212 200 203 209 195 188 180 182 188 192 196 178 162 136 155 126 68 121 93 93 54 32 38 27 37 5 26 15 25 29 41 18 4 4 24 20 23 11 2 349 342 342 344 351 348 330 349
153 144 103 194 199 198 235 37 200 211 110 175 167 239 162 150 108 120 233 240 38 252 107 175 341 265 242 297 193 183 173 179 180 176 185 199 205 205 214 208 209 207 201 196 181 179 185 186 185 185 182 183 185 183 169 196 172 185 200 8 17 87 275 250 277 342 50 33 21 358 4 360 6 6 15 14 7 359 347 343 335 347 352 335 330 330
91 116 171 288 343 323 318 295 67 95 122 68 329 79 126 184 190 201 203 180 159 234 243 319 239 262 314 356 289 156 175 181 171 183 191 199 200 212 208 210 202 199 194 175 175 181 190 186 176 165 175 187 195 191 206 211 222 258 268 254 265 222 250 279 310 346 14 7 1 10 360 8 360 2 5 4 353 351 334 336 328 330 337 321 325 323
144 246 146 190 351 353 342 335 342 347 56 193 190 212 178 110 80 124 96 101 179 215 189 148 252 254 280 354 344 107 131 171 196 216 170 207 224 212 218 223 206 191 170 179 186 193 189 171 176 198 198 195 204 212 212 210 219 223 242 241 250 290 352 355 352 342 352 19 349 4 12 353 8 3 349 348 345 334 328 323 321 318 314 313 313 307
208 183 144 195 217 227 221 191 211 223 214 207 207 167 226 162 145 113 202 180 229 180 160 192 252 255 304 339 314 248 150 209 247 222 224 214 216 217 225 226 216 187 195 189 192 183 188 195 201 204 210 215 213 198 199 213 220 249 341 23 20 345 326 320 306 310 307 27 23 8 9 359 0 359 347 337 327 314 309 309 311 307 304 308 309 309
180 327 189 207 213 232 238 215 262 93 69 183 224 181 205 177 187 160 119 174 220 241 206 228 233 106 274 210 224 238 196 202 223 225 226 243 243 239 237 216 196 204 195 194 190 191 196 207 211 211 213 213 207 202 193 69 33 34 51 30 2 344 277 280 302 344 69 66 70 42 21 5 351 335 323 316 307 313 327 333 334 336 335 336 334 329
82 208 227 224 233 248 177 184 204 170 181 205 174 226 204 167 162 164 188 216 162 147 251 228 115 181 240 227 207 219 231 228 235 232 241 248 247 239 250 246 219 210 212 192 191 193 200 208 211 211 222 228 234 118 116 147 143 132 114 101 63 48 44 10 43 72 86 75 55 50 11 341 311 323 324 318 333 342 347 344 340 342 338 339 337 333
158 219 219 158 245 158 231 153 156 162 206 173 193 192 191 184 154 190 210 199 167 200 244 234 168 207 239 237 191 207 210 211 208 222 223 222 254 209 183 205 207 203 193 193 206 203 204 207 208 215 221 225 201 181 153 136 122 118 98 90 90 77 58 56 79 70 71 72 69 32 7 348 348 358 342 346 350 350 346 342 337 337 337 333 330 331
111 247 186 172 199 125 232 153 107 176 181 266 232 225 202 173 202 195 204 219 196 222 247 244 197 224 233 241 171 214 223 209 224 221 139 151 203 209 203 206 196 193 192 200 207 208 210 209 208 218 220 219 202 177 149 132 132 131 127 124 124 90 61 84 81 87 83 79 68 43 19 2 13 2 345 359 354 354 347 343 340 336 335 335 331 329
166 265 112 152 170 240 251 337 58 125 164 238 257 256 243 161 193 211 220 224 78 284 263 256 257 262 259 234 219 224 201 242 278 264 250 223 196 198 197 194 192 194 201 205 209 212 210 216 218 221 216 215 184 168 155 150 141 137 122 117 103 93 102 109 109 108 101 82 70 61 40 34 15 3 7 2 357 351 349 344 341 338 335 337 338 337
144 244 62 88 195 275 150 147 136 95 100 228 263 254 192 186 230 212 215 196 200 223 233 251 264 262 261 282 148 199 181 203 224 239 250 233 210 188 188 198 196 200 203 207 212 206 200 198 195 191 195 174 160 152 150 147 146 135 125 110 101 103 97 90 81 80 72 57 43 35 30 19 11 4 1 358 353 345 342 338 338 339 339 338 339 340
177 145 156 146 209 219 244 120 137 110 32 294 247 238 191 214 225 211 235 208 216 211 208 224 239 239 257 87 193 250 228 233 243 227 232 240 207 193 194 199 201 205 207 200 194 193 191 191 190 186 177 166 161 155 160 143 134 131 137 134 141 117 94 81 82 78 71 53 52 33 30 18 12 357 353 350 344 336 337 338 337 340 340 338 338 334
144 170 190 178 205 141 78 143 100 94 233 236 18 138 175 203 209 217 231 225 218 167 204 213 238 268 333 260 246 258 254 239 232 239 204 193 190 207 224 216 210 208 206 202 194 189 197 189 184 188 181 166 151 136 131 135 129 129 127 127 123 103 86 85 67 79 75 62 50 33 25 14 359 350 341 339 336 338 337 339 336 332 329 325 329 328
150 102 111 80 121 167 139 71 151 217 238 38 209 324 185 188 178 208 233 245 220 217 231 252 266 256 235 228 235 246 268 268 234 216 220 216 187 186 192 205 212 212 210 203 204 204 197 187 178 166 166 159 148 138 127 119 122 120 111 115 99 85 82 74 83 75 77 64 49 34 17 1 348 342 334 333 334 335 331 329 324 326 325 325 322 323
160 142 154 62 121 51 98 200 217 233 92 236 260 139 104 94 120 67 313 261 237 215 212 220 236 239 238 242 253 333 201 253 291 263 233 213 189 181 179 199 213 207 209 206 197 203 189 186 181 179 174 151 140 140 135 136 129 121 111 90 96 80 84 85 86 85 67 56 39 24 1 352 340 332 331 329 331 329 324 322 320 321 321 316 311 303
157 87 145 169 191 173 211 197 244 6 314 289 272 157 175 176 177 169 232 261 236 198 185 200 224 244 236 247 171 104 67 61 5 298 268 226 221 198 185 205 205 213 212 211 196 201 196 185 180 167 143 146 149 142 140 128 119 120 111 95 87 90 87 92 102 97 74 60 22 5 353 347 339 331 328 328 322 319 317 320 318 316 314 311 310 311
204 172 207 172 254 132 160 250 316 357 256 259 253 8 326 172 137 185 150 282 285 191 187 180 211 231 230 207 156 153 108 77 284 260 253 249 230 204 229 234 230 213 216 213 202 178 157 154 128 138 149 147 143 134 126 124 129 125 114 109 107 105 112 114 125 117 81 20 9 349 345 339 332 320 316 315 311 309 309 308 303 302 313 310 312 310
16 62 190 203 215 71 150 212 215 232 246 239 230 197 260 241 128 100 64 292 265 191 206 179 205 220 189 185 178 139 123 197 242 253 255 234 237 209 214 226 217 217 208 192 176 172 171 164 157 149 142 143 144 144 133 132 130 121 124 125 115 107 129 152 144 115 57 342 344 324 322 315 312 304 302 301 301 303 303 304 301 302 302 294 296 296
45 0 103 183 201 213 187 223 238 221 250 268 218 241 164 126 107 76 15 274 259 207 176 162 190 193 203 191 152 157 163 203 236 248 226 206 209 206 193 206 210 213 210 198 206 175 158 142 129 145 161 169 163 145 144 133 119 124 130 135 118 154 196 183 156 131 110 281 298 298 299 299 295 292 293 294 296 294 290 293 298 297 298 295 291 295
170 280 218 210 219 225 218 262 346 289 272 187 158 177 190 157 81 98 221 235 231 182 194 177 192 196 177 161 164 178 222 200 204 220 226 199 174 241 242 231 211 196 186 179 176 145 152 168 170 175 176 162 149 148 144 131 125 141 153 160 169 210 195 157 152 142 225 280 282 282 287 290 283 287 284 281 285 287 289 288 289 295 292 294 295 291
337 90 328 336 222 225 216 229 235 268 237 171 281 151 170 99 205 213 235 196 148 193 196 192 200 202 165 176 188 207 219 224 233 221 172 190 195 208 205 200 163 136 129 157 159 160 161 163 157 139 139 150 148 148 141 136 139 158 166 174 208 206 152 154 147 178 239 269 279 284 288 284 284 277 279 282 284 288 283 279 277 282 285 286 292 295
186 149 200 200 197 59 151 215 270 260 265 130 131 62 288 153 234 181 152 317 176 178 179 215 211 214 167 203 211 213 230 241 231 226 221 217 209 216 205 184 188 191 180 159 171 198 166 164 173 175 162 152 148 143 146 133 149 166 175 195 219 170 147 153 147 225 254 279 283 285 286 286 283 285 282 282 278 280 283 284 282 276 277 284 288 288
201 109 230 241 183 154 183 186 209 220 107 156 139 172 213 211 191 166 135 193 214 165 186 191 225 210 191 194 210 231 236 242 259 250 237 234 234 243 249 229 222 214 203 208 192 177 174 171 164 156 151 149 148 145 146 143 154 169 184 218 166 161 141 140 191 220 279 280 283 289 289 282 283 279 278 277 279 277 279 284 279 278 275 276 281 291
212 188 176 183 210 159 196 212 218 131 159 192 172 195 199 214 183 178 162 182 167 221 181 169 213 211 198 206 221 220 233 232 233 234 219 225 218 218 217 212 205 201 197 195 192 179 179 178 169 152 147 154 150 148 147 147 148 175 196 204 144 165 168 203 196 279 281 280 280 283 278 283 279 280 276 274 274 281 282 283 284 289 277 275 282 282
284 173 182 84 250 264 273 200 109 57 169 195 236 211 204 226 236 178 202 220 229 183 165 180 206 204 207 206 211 244 232 238 237 243 237 236 231 231 226 230 236 230 210 166 156 171 170 132 138 149 159 166 167 158 155 159 151 175 217 164 160 178 174 186 227 280 274 275 277 277 286 292 287 279 273 272 266 263 267 274 283 279 285 278 273 273
245 155 147 189 264 140 256 118 159 204 195 195 212 233 245 239 226 197 204 214 217 183 192 208 203 213 214 190 201 221 235 235 236 242 239 238 235 235 224 219 220 202 192 195 184 145 147 152 156 168 169 177 186 173 169 168 177 187 195 191 200 190 173 159 224 262 273 276 277 282 282 285 286 287 281 277 277 269 270 268 262 266 274 275 275 272
306 179 150 221 186 183 237 222 229 324 195 213 207 214 237 243 224 178 204 212 214 218 195 215 196 231 210 204 212 214 234 239 229 237 240 237 238 236 230 225 220 204 199 162 146 158 148 161 167 170 175 186 180 172 178 179 193 201 198 212 202 180 144 212 235 252 265 273 276 282 281 280 282 285 291 284 283 289 287 267 252 257 266 272 267 271
178 113 222 177 196 258 349 273 172 55 298 263 245 239 231 226 202 205 217 224 228 241 250 241 188 218 207 225 216 210 230 249 234 228 233 246 247 243 231 224 210 192 162 160 169 168 172 166 169 176 177 188 162 169 177 197 205 197 200 209 192 165 176 232 248 258 271 273 280 279 275 274 281 283 285 290 282 268 264 281 277 267 268 253 236 230
90 237 184 111 213 202 176 221 149 161 245 236 226 227 227 226 208 222 215 214 220 226 234 247 259 234 229 235 214 191 212 239 242 222 232 238 242 240 235 204 176 163 165 155 135 163 160 172 169 172 181 171 156 172 186 204 211 210 210 213 207 170 189 223 239 255 269 267 270 277 282 282 280 280 284 286 294 298 292 270 284 278 271 281 277 276
197 222 137 203 209 221 227 221 192 208 238 232 224 224 215 206 190 213 233 238 243 234 226 225 246 264 239 237 216 201 220 230 244 231 229 242 243 240 217 173 166 165 164 157 156 174 175 173 169 163 170 163 156 174 193 210 211 216 225 210 209 184 200 200 222 245 257 264 267 269 273 278 283 284 280 282 289 294 302 310 307 298 284 276 276 287